TimeCST,TemperatureF,Dew PointF,Humidity,Sea Level PressureIn,VisibilityMPH,Wind Direction,Wind SpeedMPH,Gust SpeedMPH,PrecipitationIn,Events,Conditions,WindDirDegrees,DateUTC
12:53 AM,48.9,43.0,80,30.06,10.0,Calm,Calm,-,N/A,,Overcast,0,2012-11-05 06:53:00
1:53 AM,50.0,42.1,74,30.04,10.0,SW,4.6,-,N/A,,Overcast,220,2012-11-05 07:53:00
2:53 AM,46.9,39.9,77,30.01,10.0,Calm,Calm,-,N/A,,Clear,0,2012-11-05 08:53:00
3:53 AM,53.1,41.0,64,30.01,10.0,WSW,9.2,-,N/A,,Overcast,240,2012-11-05 09:53:00
4:53 AM,55.0,37.9,53,30.01,10.0,Variable,3.5,-,N/A,,Overcast,0,2012-11-05 10:53:00
6:53 AM,51.1,39.0,63,30.04,10.0,Calm,Calm,-,N/A,,Clear,0,2012-11-05 12:53:00
7:53 AM,54.0,41.0,62,30.05,10.0,Variable,3.5,-,N/A,,Clear,0,2012-11-05 13:53:00
8:53 AM,55.9,42.1,60,30.07,10.0,Variable,5.8,-,N/A,,Clear,0,2012-11-05 14:53:00
9:53 AM,57.0,41.0,55,30.07,10.0,NNW,8.1,-,N/A,,Clear,340,2012-11-05 15:53:00
10:53 AM,57.0,41.0,55,30.10,10.0,Variable,6.9,-,N/A,,Partly Cloudy,0,2012-11-05 16:53:00
11:53 AM,55.0,39.9,57,30.11,10.0,North,10.4,18.4,N/A,,Scattered Clouds,360,2012-11-05 17:53:00
12:53 PM,55.0,39.0,55,30.09,10.0,Variable,4.6,17.3,N/A,,Overcast,0,2012-11-05 18:53:00
1:53 PM,55.9,37.9,51,30.07,10.0,Variable,6.9,-,N/A,,Overcast,0,2012-11-05 19:53:00
2:53 PM,55.0,37.9,53,30.08,10.0,Variable,6.9,-,N/A,,Mostly Cloudy,0,2012-11-05 20:53:00
3:53 PM,54.0,37.9,55,30.09,10.0,Variable,3.5,-,N/A,,Overcast,0,2012-11-05 21:53:00
4:53 PM,53.1,37.9,57,30.09,10.0,Variable,4.6,-,N/A,,Overcast,0,2012-11-05 22:53:00
5:53 PM,52.0,37.9,59,30.12,10.0,North,5.8,-,N/A,,Overcast,360,2012-11-05 23:53:00
6:53 PM,50.0,39.0,66,30.12,10.0,North,3.5,-,N/A,,Overcast,360,2012-11-06 00:53:00
7:53 PM,46.9,37.9,71,30.12,10.0,North,8.1,-,N/A,,Mostly Cloudy,10,2012-11-06 01:53:00
8:53 PM,41.0,36.0,82,30.14,10.0,Calm,Calm,-,N/A,,Clear,0,2012-11-06 02:53:00
9:53 PM,42.1,37.9,85,30.14,10.0,Calm,Calm,-,N/A,,Clear,0,2012-11-06 03:53:00
10:53 PM,39.9,37.0,89,30.13,10.0,Calm,Calm,-,N/A,,Clear,0,2012-11-06 04:53:00
11:53 PM,35.1,34.0,96,30.14,10.0,Calm,Calm,-,N/A,,Partly Cloudy,0,2012-11-06 05:53:00